User: anonymous   Login
Location: �chenoz-la-M�line
(47.6009°N, 6.1354°E)
Time: 00:40:15
(UTC+00:00)
Language:

STARLINK-2097 - Orbit

View from above orbital plane
View from above orbital plane
View from above satellite
View from above satellite

Ground track
Ground track

The orbit data is extracted from the following two-line orbital elements,

1 47377U 21005AE  21104.66667824  .00041031  00000-0  27590-2 0  9993
2 47377  53.0538 177.3369 0001233  67.9400 251.7181 15.06380086 13247
Epoch (UTC): 14 April 2021 16:00:01
Eccentricity: 0.0001233
inclination: 53.0538°
perigee height: 546 km
apogee height: 548 km
right ascension of ascending node: 177.3369°
argument of perigee: 67.9400°
revolutions per day: 15.06380086
mean anomaly at epoch: 251.7181°
orbit number at epoch: 1324

The dashed part of the orbit path shows where the satellite is in the earth's shadow,  

DLR